Flag for U.S.A. Weather past 2 weeks in Kalamazoo, Michigan, U.S.A.

Now
42 °F

Clear.


Feels Like: 39 °F
Forecast: 42 / 62 °F
Wind: 5 mph from Northwest

Location: Kalamazoo / Battle Creek International Airport

Current Time: Sep 22, 2014 at 8:49:55 AM

Latest Report: Sep 22, 2014 at 7:53 AM


Visibility: 10 mi

Pressure: 30.22 "Hg

Humidity: 82%

Dew point: 37 °F

Location of KalamazooLocation

Historic Weather in Kalamazoo — Graph

°F

Kalamazoo temperature yesterday

Maximum temperature yesterday: 68 °F (at 4:01 AM)
Minimum temperature yesterday: 46 °F (at 11:53 PM)
Average temperature yesterday: 60 °F

Past Weeks' High & Low Weather Summary

 TemperatureHumidityPressure
High81 °F (Sep 20, 2:53 PM)97% (Sep 16, 6:53 AM)30.36 "Hg (Sep 16, 6:53 AM)
Low39 °F (Sep 17, 4:53 AM)40% (Sep 8, 1:53 PM)29.56 "Hg (Sep 10, 4:53 PM)
Average58 °F75%30.08 "Hg
* Reported Sep 7 7:53 AM — Sep 22 7:53 AM, Kalamazoo, Weather by CustomWeather, © 2014

Note: Actual official high and low records may vary slightly from our data, if they occured in-between our weather recording intervals... More about our weather records

Advertising

Kalamazoo weather history for previous 24 hours

 ConditionsComfort  
Time TempWeatherWind HumidityBarometerVisibility
7:53 AM
Sep 22
42 °FClear.5 mph82%30.22 "Hg10 mi
6:53 AM41 °FClear.3 mph82%30.20 "Hg10 mi
5:53 AM42 °FPassing clouds.6 mph79%30.18 "Hg10 mi
4:53 AM47 °FOvercast.12 mph69%30.16 "Hg10 mi
3:53 AM47 °FOvercast.10 mph69%30.14 "Hg10 mi
2:53 AM47 °FOvercast.13 mph66%30.13 "Hg10 mi
1:53 AM47 °FOvercast.10 mph71%30.12 "Hg10 mi
12:53 AM45 °FPassing clouds.13 mph80%30.12 "Hg10 mi
11:53 PM
Sep 21
46 °FClear.10 mph77%30.11 "Hg10 mi
10:53 PM48 °FClear.16 mph74%30.09 "Hg10 mi
9:53 PM50 °FClear.20 mph71%30.07 "Hg10 mi
8:53 PM52 °FPassing clouds.13 mph77%30.04 "Hg10 mi
7:53 PM55 °FPartly sunny.14 mph74%30.00 "Hg10 mi
6:53 PM56 °FOvercast.15 mph72%29.96 "Hg10 mi
5:53 PM58 °FMostly cloudy.18 mph70%29.92 "Hg10 mi
4:53 PM59 °FMostly cloudy.24 mph69%29.88 "Hg10 mi
3:53 PM61 °FMostly cloudy.24 mph70%29.84 "Hg10 mi
2:53 PM62 °FMostly cloudy.25 mph73%29.81 "Hg10 mi
1:53 PM60 °FLight rain. Cloudy.20 mph80%29.80 "Hg8 mi
12:53 PM61 °FPartly sunny.14 mph78%29.77 "Hg8 mi
12:04 PM57 °FLight rain. Fog.14 mph90%29.77 "Hg5 mi
11:53 AM58 °FLight rain. Mostly cloudy.12 mph84%29.76 "Hg5 mi
10:53 AM61 °FCloudy.13 mph67%29.75 "Hg10 mi
9:53 AM61 °FPartly sunny.13 mph72%29.74 "Hg10 mi
8:53 AM60 °FPartly sunny.14 mph78%29.73 "Hg10 mi
Weather by CustomWeather, © 2014

See weather overviewHow to use our weather pages